(55) Pandora
ephemeris date magn radius delta ra dec elong phase
Today25 Aug 202613.93.095 AU3.540 AU13h37m-13°50'56.2°15.8°
Opposition5 Jul 202711.52.712 AU1.708 AU19h05m-34°04'168.5°4.3°
(55) Pandora - 2026-08-25
astro.vanbuitenen.nl


 
-1 year
-1 month
-1 day
Now
+1 day
+1 month
+1 year

The interactive orbit chart above shows the body's path through the solar system and its position at the given date. Green and blue lines are shown perpendicular to the ecliptic plane: Green if the path is above the ecliptic plane, blue if it is below. (Left-click and drag to rotate the view; Right-click and drag to move the view; Use scroll wheel to zoom in our out.)

The orbital elements of Pandora are:

            e (Eccentricity)                : 0.1449760
            a (Semimajor axis)              : 2.7580540
            i (Inclination)                 : 7.17612
            Ω (Longitude of ascending node) : 10.28341
            ω (Argument of perihelion)      : 4.89075
            M (Mean anomaly)                : 200.62853
            Epoch                           : 2026 Jun 09

            L (Longitude of perihelion)     : 15.13603
            B (Latitude of perihelion)      : 0.61022
            P (Orbital period in years)     : 4.58            
        

The light curve chart below shows the estimated development of the minor planet's magnitude.


The all-sky chart below shows the path of the minor planet over the same period as the light curve. The current position is marked yellow.





The following chart shows the path of the minor planet in the next few days. The field of view is optimized for (~10x50) binoculars and finderscopes.




Ephemerides:
Date       Time       RA (2000)    DEC (2000)    delta   radius  elong  phase   PA    magn
2026-08-25 00:00 UT   13 37 33.9   -13 50 38     3.540    3.095   56.2   15.8   114   13.9 
2026-08-25 22:59 UT   13 38 38.7   -13 57 00     3.550    3.094   55.6   15.6   114   13.9 
2026-08-26 00:00 UT   13 38 41.6   -13 57 17     3.551    3.094   55.6   15.6   114   13.9 
2026-08-27 00:00 UT   13 39 49.7   -14 03 58     3.561    3.093   54.9   15.5   114   13.9 
2026-08-28 00:00 UT   13 40 58.3   -14 10 40     3.572    3.092   54.2   15.4   114   13.9 
2026-08-29 00:00 UT   13 42 07.4   -14 17 24     3.582    3.092   53.6   15.2   114   13.9 
2026-08-30 00:00 UT   13 43 17.0   -14 24 10     3.593    3.091   52.9   15.1   114   13.9 
2026-08-31 00:00 UT   13 44 27.1   -14 30 57     3.603    3.090   52.3   15.0   114   13.9 
2026-09-01 00:00 UT   13 45 37.6   -14 37 46     3.613    3.089   51.6   14.8   114   13.9 
2026-09-02 00:00 UT   13 46 48.6   -14 44 36     3.623    3.089   51.0   14.7   114   13.9 
2026-09-03 00:00 UT   13 48 00.1   -14 51 27     3.633    3.088   50.3   14.6   114   13.9 
2026-09-04 00:00 UT   13 49 12.0   -14 58 20     3.643    3.087   49.6   14.4   114   13.9 
2026-09-05 00:00 UT   13 50 24.4   -15 05 13     3.653    3.086   49.0   14.3   114   13.9 
2026-09-06 00:00 UT   13 51 37.3   -15 12 09     3.662    3.086   48.3   14.1   114   13.9 
2026-09-07 00:00 UT   13 52 50.6   -15 19 05     3.672    3.085   47.7   14.0   114   13.9 
2026-09-08 00:00 UT   13 54 04.3   -15 26 02     3.681    3.084   47.0   13.8   114   13.9 
2026-09-09 00:00 UT   13 55 18.5   -15 33 01     3.691    3.083   46.4   13.7   114   13.9 
2026-09-10 00:00 UT   13 56 33.1   -15 40 00     3.700    3.082   45.7   13.5   114   13.9 
2026-09-11 00:00 UT   13 57 48.2   -15 47 00     3.709    3.082   45.1   13.4   114   13.9 
2026-09-12 00:00 UT   13 59 03.7   -15 54 01     3.718    3.081   44.5   13.2   114   13.9 
2026-09-13 00:00 UT   14 00 19.6   -16 01 03     3.727    3.080   43.8   13.1   114   13.9 
2026-09-14 00:00 UT   14 01 35.9   -16 08 06     3.735    3.079   43.2   12.9   114   13.9 
2026-09-15 00:00 UT   14 02 52.7   -16 15 09     3.744    3.078   42.5   12.8   114   13.9 
2026-09-16 00:00 UT   14 04 09.8   -16 22 13     3.752    3.078   41.9   12.6   114   13.9 
2026-09-17 00:00 UT   14 05 27.4   -16 29 18     3.761    3.077   41.2   12.4   114   13.9 
2026-09-18 00:00 UT   14 06 45.4   -16 36 23     3.769    3.076   40.6   12.3   114   13.9 
2026-09-19 00:00 UT   14 08 03.7   -16 43 28     3.777    3.075   40.0   12.1   114   13.9 
2026-09-20 00:00 UT   14 09 22.5   -16 50 34     3.785    3.074   39.3   11.9   114   13.9 


    Terminology:
            
    delta:  distance between minor planet and earth in AU
    radius: distance between minor planet and sun in AU
    magn:   magnitude (brightness) estimate    
    ra:     right ascension in hours (24h = 360deg)
    dec:    declination in degrees
    elong:  elongation in degrees (angle sun-earth-minor planet)    
    phase:  phase angle in degrees (angle sun-minor planet-earth)        
    AU:     Astronomical Unit (mean distance between earth and sun: 149597870.7 km
    

Orbital elements provided by the MPC (Minor Planet Center).
Calculations by a modified version of AAPlus, a C# implementation of the AA+ project by PJ Naughter from the algorithms presented in the book "Astronomical Algorithms" by Jean Meeus.
NGC2000 dso catalog and star labels from VizieR as provided by the Strasbourg astronomical Data Center.
Tycho2 catalog from the ESO archive.